TimeCDT,TemperatureF,Dew PointF,Humidity,Sea Level PressureIn,VisibilityMPH,Wind Direction,Wind SpeedMPH,Gust SpeedMPH,PrecipitationIn,Events,Conditions,WindDirDegrees,DateUTC
12:14 AM,30.2,28.4,93,30.02,10.0,NW,21.9,28.8,N/A,,Overcast,320,2014-04-17 05:14:00
12:35 AM,30.2,28.4,93,30.03,10.0,NW,21.9,27.6,N/A,,Overcast,310,2014-04-17 05:35:00
12:55 AM,30.2,26.6,86,30.04,10.0,NW,23.0,26.5,N/A,,Overcast,320,2014-04-17 05:55:00
1:14 AM,30.2,26.6,86,30.05,10.0,NW,20.7,27.6,N/A,,Overcast,320,2014-04-17 06:14:00
1:35 AM,30.2,26.6,86,30.05,10.0,NW,18.4,25.3,N/A,,Overcast,320,2014-04-17 06:35:00
1:55 AM,30.2,26.6,86,30.06,10.0,NW,20.7,27.6,N/A,,Overcast,320,2014-04-17 06:55:00
2:14 AM,30.2,26.6,86,30.07,10.0,NW,21.9,25.3,N/A,,Overcast,320,2014-04-17 07:14:00
2:35 AM,30.2,26.6,86,30.07,10.0,NW,19.6,28.8,N/A,,Overcast,320,2014-04-17 07:35:00
2:55 AM,30.2,26.6,86,30.08,10.0,NW,20.7,31.1,N/A,,Overcast,320,2014-04-17 07:55:00
3:15 AM,30.2,26.6,86,30.10,10.0,NW,18.4,26.5,N/A,,Overcast,310,2014-04-17 08:15:00
3:35 AM,30.2,26.6,86,30.11,10.0,NW,16.1,20.7,N/A,,Overcast,310,2014-04-17 08:35:00
3:55 AM,30.2,26.6,86,30.12,10.0,NW,19.6,23.0,N/A,,Overcast,310,2014-04-17 08:55:00
4:15 AM,28.4,24.8,86,30.13,10.0,NW,17.3,23.0,N/A,,Overcast,320,2014-04-17 09:15:00
4:35 AM,28.4,24.8,86,30.13,10.0,NW,19.6,23.0,N/A,,Overcast,310,2014-04-17 09:35:00
4:55 AM,28.4,24.8,86,30.14,10.0,NW,18.4,-,N/A,,Overcast,310,2014-04-17 09:55:00
5:15 AM,28.4,24.8,86,30.16,10.0,WNW,16.1,21.9,N/A,,Overcast,300,2014-04-17 10:15:00
5:35 AM,26.6,23.0,86,30.16,10.0,NW,17.3,25.3,N/A,,Mostly Cloudy,310,2014-04-17 10:35:00
5:55 AM,26.6,21.2,80,30.17,10.0,WNW,12.7,-,N/A,,Scattered Clouds,300,2014-04-17 10:55:00
6:15 AM,24.8,21.2,86,30.18,10.0,WNW,10.4,-,N/A,,Scattered Clouds,300,2014-04-17 11:15:00
6:35 AM,26.6,21.2,80,30.19,10.0,NW,13.8,-,N/A,,Mostly Cloudy,310,2014-04-17 11:35:00
6:55 AM,26.6,21.2,80,30.20,10.0,NW,15.0,-,N/A,,Overcast,310,2014-04-17 11:55:00
7:15 AM,26.6,23.0,86,30.21,10.0,WNW,12.7,17.3,N/A,,Overcast,300,2014-04-17 12:15:00
7:35 AM,26.6,21.2,80,30.21,10.0,NW,16.1,-,N/A,,Overcast,310,2014-04-17 12:35:00
7:55 AM,26.6,21.2,80,30.24,10.0,WNW,12.7,-,N/A,,Overcast,300,2014-04-17 12:55:00
8:15 AM,26.6,23.0,86,30.24,10.0,WNW,12.7,-,N/A,,Overcast,300,2014-04-17 13:15:00
8:35 AM,26.6,23.0,86,30.24,10.0,NW,16.1,-,N/A,,Overcast,310,2014-04-17 13:35:00
8:54 AM,26.6,24.8,93,30.25,10.0,NW,15.0,-,N/A,,Overcast,310,2014-04-17 13:54:00
9:15 AM,28.4,24.8,86,30.26,10.0,NW,15.0,-,N/A,,Overcast,310,2014-04-17 14:15:00
9:35 AM,28.4,24.8,86,30.28,10.0,NW,12.7,-,N/A,,Overcast,310,2014-04-17 14:35:00
9:55 AM,28.4,24.8,86,30.29,10.0,NNW,10.4,-,N/A,,Overcast,330,2014-04-17 14:55:00
10:15 AM,28.4,24.8,86,30.31,10.0,NNW,10.4,-,N/A,,Overcast,330,2014-04-17 15:15:00
10:35 AM,30.2,24.8,80,30.31,10.0,NNW,10.4,-,N/A,,Overcast,330,2014-04-17 15:35:00
11:15 AM,30.2,26.6,86,30.32,10.0,NW,10.4,-,N/A,,Overcast,310,2014-04-17 16:15:00
11:35 AM,32.0,26.6,80,30.32,10.0,NW,10.4,-,N/A,,Overcast,310,2014-04-17 16:35:00
11:55 AM,33.8,28.4,81,30.31,10.0,NW,11.5,-,N/A,,Overcast,320,2014-04-17 16:55:00
12:14 PM,35.6,28.4,75,30.31,10.0,NW,12.7,-,N/A,,Mostly Cloudy,320,2014-04-17 17:14:00
12:35 PM,35.6,28.4,75,30.31,10.0,NW,13.8,-,N/A,,Mostly Cloudy,310,2014-04-17 17:35:00
12:55 PM,35.6,28.4,75,30.31,10.0,NW,10.4,-,N/A,,Mostly Cloudy,320,2014-04-17 17:55:00
1:14 PM,37.4,30.2,75,30.30,10.0,NW,13.8,17.3,N/A,,Mostly Cloudy,320,2014-04-17 18:14:00
1:35 PM,39.2,30.2,70,30.30,10.0,NNW,15.0,18.4,N/A,,Mostly Cloudy,330,2014-04-17 18:35:00
1:55 PM,39.2,30.2,70,30.30,10.0,NNW,10.4,-,N/A,,Mostly Cloudy,330,2014-04-17 18:55:00
2:15 PM,39.2,30.2,70,30.31,10.0,NW,8.1,17.3,N/A,,Mostly Cloudy,310,2014-04-17 19:15:00
2:35 PM,41.0,30.2,65,30.31,10.0,WNW,10.4,-,N/A,,Mostly Cloudy,300,2014-04-17 19:35:00
2:55 PM,41.0,30.2,65,30.31,10.0,NNW,8.1,16.1,N/A,,Mostly Cloudy,330,2014-04-17 19:55:00
3:15 PM,42.8,30.2,61,30.31,10.0,NW,9.2,17.3,N/A,,Mostly Cloudy,310,2014-04-17 20:15:00
3:35 PM,42.8,30.2,61,30.31,10.0,NW,10.4,-,N/A,,Mostly Cloudy,310,2014-04-17 20:35:00
3:55 PM,44.6,30.2,57,30.30,10.0,NW,6.9,-,N/A,,Scattered Clouds,310,2014-04-17 20:55:00
4:15 PM,42.8,28.4,57,30.30,10.0,NNW,9.2,-,N/A,,Scattered Clouds,330,2014-04-17 21:15:00
4:35 PM,44.6,30.2,57,30.30,10.0,NW,9.2,-,N/A,,Mostly Cloudy,320,2014-04-17 21:35:00
4:55 PM,44.6,30.2,57,30.30,10.0,WNW,6.9,-,N/A,,Scattered Clouds,290,2014-04-17 21:55:00
5:15 PM,42.8,28.4,57,30.30,10.0,WNW,9.2,-,N/A,,Scattered Clouds,300,2014-04-17 22:15:00
5:35 PM,42.8,28.4,57,30.30,10.0,NW,8.1,-,N/A,,Scattered Clouds,310,2014-04-17 22:35:00
5:55 PM,42.8,28.4,57,30.30,10.0,North,6.9,-,N/A,,Scattered Clouds,350,2014-04-17 22:55:00
6:14 PM,42.8,28.4,57,30.30,10.0,NNW,3.5,-,N/A,,Clear,330,2014-04-17 23:14:00
6:35 PM,42.8,26.6,53,30.29,10.0,NW,3.5,-,N/A,,Clear,310,2014-04-17 23:35:00
6:55 PM,42.8,28.4,57,30.29,10.0,NW,4.6,-,N/A,,Clear,320,2014-04-17 23:55:00
7:15 PM,42.8,28.4,57,30.31,10.0,WNW,4.6,-,N/A,,Clear,300,2014-04-18 00:15:00
7:35 PM,41.0,28.4,61,30.30,10.0,NNW,5.8,-,N/A,,Clear,340,2014-04-18 00:35:00
7:55 PM,39.2,28.4,65,30.31,10.0,NNW,4.6,-,N/A,,Clear,340,2014-04-18 00:55:00
8:15 PM,37.4,30.2,75,30.30,10.0,North,4.6,-,N/A,,Clear,350,2014-04-18 01:15:00
8:35 PM,37.4,28.4,70,30.31,10.0,North,3.5,-,N/A,,Clear,360,2014-04-18 01:35:00
8:55 PM,35.6,28.4,75,30.31,10.0,North,3.5,-,N/A,,Clear,360,2014-04-18 01:55:00
9:15 PM,35.6,28.4,75,30.32,10.0,North,3.5,-,N/A,,Clear,350,2014-04-18 02:15:00
9:34 PM,33.8,28.4,81,30.32,10.0,Calm,Calm,-,N/A,,Clear,0,2014-04-18 02:34:00
9:55 PM,32.0,28.4,87,30.32,10.0,Calm,Calm,-,N/A,,Clear,0,2014-04-18 02:55:00
10:15 PM,32.0,28.4,87,30.32,10.0,Calm,Calm,-,N/A,,Clear,0,2014-04-18 03:15:00
10:34 PM,32.0,28.4,87,30.32,10.0,Calm,Calm,-,N/A,,Clear,0,2014-04-18 03:34:00
10:55 PM,33.8,28.4,81,30.32,10.0,Calm,Calm,-,N/A,,Clear,0,2014-04-18 03:55:00
11:15 PM,33.8,28.4,81,30.32,10.0,Calm,Calm,-,N/A,,Clear,0,2014-04-18 04:15:00
11:35 PM,32.0,28.4,87,30.32,10.0,Calm,Calm,-,N/A,,Scattered Clouds,0,2014-04-18 04:35:00
11:55 PM,33.8,28.4,81,30.32,10.0,Calm,Calm,-,N/A,,Mostly Cloudy,0,2014-04-18 04:55:00